Location: Bannatyne
(13.0833°N, 59.5333°W)
Time: 04:22:30
(UTC+00:00)

Vanguard 3 - Pass Details

Date: 29 January 2020
Orbit: 508 x 3263 km, 33.3° (Epoch: 19 February)

Event Time Altitude Azimuth Distance (km) Brightness Sun altitude
Rises 21:34:26 0° 280° (W) 6,730 13.1 4.5°
Reaches altitude 10° 21:39:17 10° 287° (WNW) 5,947 12.5 3.4°
Maximum altitude 21:57:00 39° 351° (N) 4,194 10.7 -0.7°
Drops below altitude 10° 22:13:06 10° 56° (NE) 5,418 10.7 -4.4°
Enters shadow 22:15:34 - 61° (ENE) 5,811 10.8 -5.0°
Sets 22:17:17 0° 64° (ENE) 6,105 - -5.4°
